Home   Weather   Oberlin   Past weeks

Flag for USA Past Weather in Oberlin, Ohio, USA — Yesterday and Last 2 Weeks

Now
24 °F

Overcast.


Feels Like: 12 °F
Forecast: 18 / 27 °F
Wind: 13 mph from West

Location: Lorain County Regional Airport

Current Time: Dec 10, 2016 at 4:02:07 am

Latest Report: Dec 10, 2016 at 2:53 am


Visibility: 10 mi

Pressure: 30.47 "Hg

Humidity: 75%

Dew Point: 17 °F

Location of OberlinLocation

Past Weather in Oberlin — Graph

°F

Oberlin Temperature Yesterday

Maximum temperature yesterday: 28 °F (at 12:53 pm)
Minimum temperature yesterday: 22 °F (at 12:53 am)
Average temperature yesterday: 25 °F

High & Low Weather Summary for the Past Weeks

 TemperatureHumidityPressure
High60 °F (Nov 30, 1:53 pm)93% (Dec 6, 4:53 pm)30.47 "Hg (Dec 6, 4:53 pm)
Low22 °F (Dec 8, 9:53 pm)40% (Nov 28, 7:53 pm)29.48 "Hg (Nov 29, 1:53 am)
Average37 °F74%30.05 "Hg
* Reported Nov 25 1:53 am — Dec 10 1:53 am, Oberlin, Weather by CustomWeather, © 2016

Note: Actual official high and low records may vary slightly from our data, if they occured in-between our weather recording intervals... More about our weather records

Advertising

Oberlin Weather History for the Previous 24 Hours

Scroll right to see more
 ConditionsComfort  
Time TempWeatherWind HumidityBarometerVisibility
1:53 am
Sat, Dec 10
24 °FMostly cloudy.13 mph77%30.46 "Hg10 mi
12:53 am25 °FOvercast.16 mph72%30.46 "Hg10 mi
11:53 pm
Fri, Dec 9
25 °FOvercast.10 mph78%30.47 "Hg10 mi
10:53 pm25 °FOvercast.12 mph78%30.46 "Hg9 mi
9:53 pm26 °FOvercast.16 mph74%30.46 "Hg10 mi
8:53 pm26 °FLight snow. Mostly cloudy.15 mph77%30.46 "Hg3 mi
7:57 pm26 °FLight snow. Mostly cloudy.15 mph81%30.42 "Hg3 mi
6:53 pm25 °FPassing clouds.13 mph81%30.45 "Hg10 mi
5:53 pm26 °FOvercast.12 mph77%30.45 "Hg10 mi
4:53 pm27 °FLight snow. Mostly cloudy.10 mph78%30.45 "Hg4 mi
3:53 pm27 °FMore clouds than sun.15 mph78%30.43 "Hg10 mi
2:53 pm28 °FMore clouds than sun.14 mph72%30.42 "Hg10 mi
1:53 pm28 °FOvercast.17 mph72%30.42 "Hg10 mi
12:53 pm28 °FCloudy.14 mph72%30.42 "Hg10 mi
12:04 pm27 °FMore clouds than sun.15 mph75%30.40 "Hg10 mi
11:53 am26 °FMostly cloudy.14 mph74%30.43 "Hg10 mi
10:53 am24 °FLight snow. Overcast.14 mph77%30.45 "Hg3 mi
9:53 am24 °FLight snow. Mostly cloudy.17 mph75%30.44 "Hg5 mi
8:53 am23 °FOvercast.15 mph78%30.41 "Hg10 mi
7:53 am23 °FLight snow. Overcast.14 mph78%30.40 "Hg6 mi
7:04 am23 °FLight snow. Overcast.12 mph78%30.35 "Hg6 mi
5:53 am22 °FOvercast.13 mph78%30.37 "Hg10 mi
4:53 am22 °FOvercast.14 mph78%30.36 "Hg10 mi
Weather by CustomWeather, © 2016

See weather overviewHow to use our weather pages